Weather History for KOLU - December, 2011

Change the Weather History Date:

Thursday, December 1, 2011

  Actual Average Record
Temperature  
Mean Temperature 27 °F -  
Max Temperature 35 °F 39 °F 68 °F (1998)
Min Temperature 19 °F 21 °F -2 °F (1985)
Degree Days  
Heating Degree Days 38    
Moisture  
Dew Point 18 °F    
Average Humidity 59    
Maximum Humidity 75    
Minimum Humidity 40    
Precipitation  
Precipitation 0.00 in - - ()
Sea Level Pressure  
Sea Level Pressure 30.32 in    
Wind  
Wind Speed 13 mph (North)    
Max Wind Speed 25 mph    
Max Gust Speed 37 mph    
Visibility 10 miles    
Events      
Averages and records for this station are not official NWS values.
T = Trace of Precipitation, MM = Missing Value Source: NWS Daily Summary

Daily Weather History Graph

Daily Weather History Graph

Search for Another Location

Airport or City:

Trip Planner

Search our weather history database for the weather conditions in past years. The results will help you decide how hot, cold, wet, or windy it might be!

Date:

Astronomy

Dec. 01, 2011 Rise Set
Actual Time 7:35 AM CST 5:00 PM CST
Civil Twilight 7:05 AM CST 5:31 PM CST
Nautical Twilight 6:30 AM CST 6:05 PM CST
Astronomical Twilight 5:57 AM CST 6:39 PM CST
Moon 12:18 PM CST (12/1) No Moon Set
Length of Visible Light 10h 26m
Length of Day
9h 24m
Waxing Crescent, 43% of the Moon is Illuminated
Dec 1
Waxing Crescent
Dec 2
First Quarter
Dec 10
Full
Dec 17
Last Quarter
Dec 24
New

Hourly Weather History & Observations

Time (CST) Temp. Windchill Dew Point Humidity Pressure Visibility Wind Dir Wind Speed Gust Speed Precip Events Conditions
12:15 AM 33.8 °F - 21.2 °F 60% 29.99 in 10.0 mi Calm Calm - N/A   Clear
12:35 AM 33.8 °F - 21.2 °F 60% 29.98 in 10.0 mi Calm Calm - N/A   Clear
1:15 AM 33.8 °F - 21.2 °F 60% 29.98 in 10.0 mi Calm Calm - N/A   Clear
1:35 AM 33.8 °F - 21.2 °F 60% 29.99 in 10.0 mi Calm Calm - N/A   Clear
1:55 AM 33.8 °F 27.0 °F 21.2 °F 60% 30.01 in 10.0 mi NW 8.1 mph - N/A   Clear
2:15 AM 33.8 °F 27.0 °F 24.8 °F 70% 30.02 in 10.0 mi NNW 8.1 mph - N/A   Clear
2:35 AM 35.6 °F 29.2 °F 24.8 °F 65% 30.03 in 10.0 mi North 8.1 mph - N/A   Clear
2:55 AM 35.6 °F 27.5 °F 24.8 °F 65% 30.04 in 10.0 mi North 11.5 mph - N/A   Clear
3:15 AM 35.6 °F 26.6 °F 21.2 °F 56% 30.06 in 10.0 mi North 13.8 mph - N/A   Clear
3:35 AM 35.6 °F 27.1 °F 21.2 °F 56% 30.07 in 10.0 mi North 12.7 mph 19.6 mph N/A   Clear
3:55 AM 35.6 °F 26.2 °F 19.4 °F 52% 30.09 in 10.0 mi North 15.0 mph - N/A   Clear
4:35 AM 33.8 °F 22.8 °F 19.4 °F 56% 30.12 in 10.0 mi North 18.4 mph 23.0 mph N/A   Clear
4:55 AM 33.8 °F 22.8 °F 21.2 °F 60% 30.14 in 10.0 mi North 18.4 mph 26.5 mph N/A   Clear
5:15 AM 33.8 °F 21.9 °F 21.2 °F 60% 30.15 in 10.0 mi North 21.9 mph 27.6 mph N/A   Clear
5:35 AM 33.8 °F 22.5 °F 21.2 °F 60% 30.17 in 10.0 mi North 19.6 mph 31.1 mph N/A   Clear
5:55 AM 33.8 °F 21.3 °F 24.8 °F 70% 30.18 in 10.0 mi North 24.2 mph 32.2 mph N/A   Clear
6:15 AM 33.8 °F 22.5 °F 24.8 °F 70% 30.20 in 10.0 mi North 19.6 mph 29.9 mph N/A   Clear
6:55 AM 35.6 °F 24.0 °F 26.6 °F 70% 30.24 in 10.0 mi North 23.0 mph 35.7 mph N/A   Overcast
7:15 AM 33.8 °F 21.0 °F 26.6 °F 75% 30.25 in 10.0 mi North 25.3 mph 36.8 mph N/A   Overcast
7:35 AM 33.8 °F 21.3 °F 26.6 °F 75% 30.27 in 10.0 mi North 24.2 mph 32.2 mph N/A   Overcast
7:55 AM 33.8 °F 21.6 °F 26.6 °F 75% 30.28 in 10.0 mi North 23.0 mph 28.8 mph N/A   Overcast
8:15 AM 33.8 °F 22.2 °F 26.6 °F 75% 30.30 in 10.0 mi North 20.7 mph 29.9 mph N/A   Overcast
8:35 AM 33.8 °F 22.2 °F 24.8 °F 70% 30.31 in 9.0 mi North 20.7 mph 31.1 mph N/A   Overcast
8:55 AM 33.8 °F 21.9 °F 24.8 °F 70% 30.33 in 9.0 mi North 21.9 mph 32.2 mph N/A   Overcast
9:15 AM 33.8 °F 21.3 °F 24.8 °F 70% 30.34 in 10.0 mi North 24.2 mph 32.2 mph N/A   Overcast
9:35 AM 33.8 °F 21.9 °F 24.8 °F 70% 30.36 in 10.0 mi North 21.9 mph 34.5 mph N/A   Overcast
9:55 AM 33.8 °F 21.6 °F 24.8 °F 70% 30.36 in 10.0 mi North 23.0 mph 31.1 mph N/A   Overcast
10:15 AM 33.8 °F 21.9 °F 24.8 °F 70% 30.38 in 10.0 mi North 21.9 mph 32.2 mph N/A   Overcast
10:35 AM 33.8 °F 22.8 °F 24.8 °F 70% 30.38 in 10.0 mi North 18.4 mph 32.2 mph N/A   Overcast
10:55 AM 32.0 °F 19.2 °F 23.0 °F 69% 30.39 in 10.0 mi North 23.0 mph 33.4 mph N/A   Overcast
11:15 AM 30.2 °F 16.8 °F 21.2 °F 69% 30.40 in 10.0 mi North 23.0 mph 29.9 mph N/A   Overcast
11:35 AM 30.2 °F 16.5 °F 19.4 °F 64% 30.41 in 10.0 mi North 24.2 mph 29.9 mph N/A   Overcast
12:15 PM 28.4 °F 13.8 °F 19.4 °F 69% 30.42 in 10.0 mi North 25.3 mph 29.9 mph N/A   Overcast
12:35 PM 30.2 °F 17.1 °F 19.4 °F 64% 30.42 in 10.0 mi North 21.9 mph 26.5 mph N/A   Overcast
12:55 PM 30.2 °F 16.5 °F 19.4 °F 64% 30.43 in 10.0 mi NNW 24.2 mph 29.9 mph N/A   Overcast
1:15 PM 30.2 °F 16.5 °F 17.6 °F 60% 30.43 in 10.0 mi North 24.2 mph 29.9 mph N/A   Overcast
1:35 PM 30.2 °F 17.1 °F 17.6 °F 60% 30.43 in 10.0 mi NNW 21.9 mph 32.2 mph N/A   Overcast
1:55 PM 30.2 °F 17.1 °F 15.8 °F 55% 30.44 in 10.0 mi NNW 21.9 mph 31.1 mph N/A   Mostly Cloudy
2:15 PM 30.2 °F 17.4 °F 15.8 °F 55% 30.44 in 10.0 mi NNW 20.7 mph 26.5 mph N/A   Mostly Cloudy
2:35 PM 30.2 °F 17.1 °F 14.0 °F 51% 30.45 in 10.0 mi North 21.9 mph 29.9 mph N/A   Overcast
3:15 PM 30.2 °F 17.1 °F 10.4 °F 44% 30.46 in 10.0 mi North 21.9 mph 26.5 mph N/A   Mostly Cloudy
3:35 PM 30.2 °F 17.1 °F 8.6 °F 40% 30.47 in 10.0 mi North 21.9 mph 25.3 mph N/A   Scattered Clouds
3:55 PM 30.2 °F 16.8 °F 8.6 °F 40% 30.47 in 10.0 mi North 23.0 mph 28.8 mph N/A   Scattered Clouds
4:15 PM 28.4 °F 14.4 °F 6.8 °F 40% 30.47 in 10.0 mi North 23.0 mph 28.8 mph N/A   Partly Cloudy
4:35 PM 28.4 °F 16.2 °F 6.8 °F 40% 30.49 in 10.0 mi North 17.3 mph 25.3 mph N/A   Clear
4:55 PM 26.6 °F 13.8 °F 6.8 °F 43% 30.49 in 10.0 mi NNW 17.3 mph 20.7 mph N/A   Clear
5:15 PM 26.6 °F 15.2 °F 6.8 °F 43% 30.50 in 10.0 mi NNW 13.8 mph - N/A   Clear
5:35 PM 26.6 °F 14.7 °F 6.8 °F 43% 30.49 in 10.0 mi NNW 15.0 mph 21.9 mph N/A   Clear
5:55 PM 26.6 °F 15.7 °F 6.8 °F 43% 30.49 in 10.0 mi NNW 12.7 mph - N/A   Clear
6:15 PM 26.6 °F 14.3 °F 6.8 °F 43% 30.49 in 10.0 mi North 16.1 mph 24.2 mph N/A   Clear
6:35 PM 24.8 °F 14.6 °F 6.8 °F 46% 30.50 in 10.0 mi NNW 10.4 mph - N/A   Clear
6:55 PM 24.8 °F 16.1 °F 6.8 °F 46% 30.51 in 10.0 mi NNW 8.1 mph - N/A   Clear
7:15 PM 23.0 °F 14.7 °F 6.8 °F 50% 30.51 in 10.0 mi NNW 6.9 mph - N/A   Clear
7:35 PM 21.2 °F 13.6 °F 6.8 °F 54% 30.53 in 10.0 mi NNW 5.8 mph - N/A   Clear
8:15 PM 19.4 °F 9.5 °F 6.8 °F 58% 30.53 in 10.0 mi NNW 8.1 mph - N/A   Clear
8:35 PM 19.4 °F 9.5 °F 6.8 °F 58% 30.53 in 10.0 mi North 8.1 mph - N/A   Clear
8:55 PM 19.4 °F 11.5 °F 5.0 °F 54% 30.53 in 10.0 mi NNW 5.8 mph - N/A   Clear
9:15 PM 17.6 °F 9.3 °F 5.0 °F 58% 30.53 in 10.0 mi WNW 5.8 mph - N/A   Clear
9:35 PM 15.8 °F 8.6 °F 3.2 °F 58% 30.52 in 10.0 mi NW 4.6 mph - N/A   Clear
9:55 PM 15.8 °F - 3.2 °F 58% 30.52 in 10.0 mi Calm Calm - N/A   Clear
10:15 PM 15.8 °F - 5.0 °F 62% 30.52 in 10.0 mi Calm Calm - N/A   Clear
10:35 PM 14.0 °F - 3.2 °F 62% 30.52 in 10.0 mi Calm Calm - N/A   Clear
11:15 PM 12.2 °F 1.7 °F 3.2 °F 67% 30.51 in 10.0 mi WNW 6.9 mph - N/A   Clear
11:35 PM 10.4 °F 0.8 °F 1.4 °F 67% 30.51 in 10.0 mi WNW 5.8 mph - N/A   Clear
11:55 PM 10.4 °F 2.2 °F 1.4 °F 67% 30.50 in 10.0 mi WNW 4.6 mph - N/A   Clear